Regional Weather Roundup
Issued by NWS

Home | Current Version | Previous Version | Text Only | Print | Product List | Glossary On
Versions: 1 2 3 4 5 6 7 8 9 10 11 12 13 14 15 16 17 18 19 20 21 22 23 24 25 26 27 28 29 30 31 32 33 34 35 36 37 38 39 40 41 42 43 44 45 46 47 48 49 50
000
ASCA44 KEWX 161720
RWRMX

LATIN AMERICA AND CARIBBEAN REGIONAL WEATHER ROUNDUP
NATIONAL WEATHER SERVICE AUSTIN/SAN ANTONIO TX
1100 AM CST TUE JAN 16 2018

NOTE: "FAIR" INDICATED FEW OR NO CLOUDS BELOW 12,000 FEET WITH NO
SIGNIFICANT WEATHER AND/OR OBSTRUCTIONS TO VISIBILITY.

BAJA CALIFORNIA

CITY           SKY/WX    TMP DP  RH WIND       PRES   REMARKS
LA PAZ         SUNNY     72  52  49 CALM      30.11R

NORTHWESTERN MEXICO

CITY           SKY/WX    TMP DP  RH WIND       PRES   REMARKS
CULIACAN       SUNNY     68  54  60 CALM      30.06R
DURANGO        SUNNY     54  21  28 NW6       30.37S
GUAYMAS        MOSUNNY   68  48  49 CALM      30.04R
HERMOSILLO     MOSUNNY   66  34  30 CALM      30.10R
CD. JUAREZ       N/A    N/A N/A N/A MISG        N/A
LOS MOCHIS     MOSUNNY   66  59  77 W8        30.09R
OBREGON        MOSUNNY   66  43  42 CALM      30.06R

NORTHEASTERN MEXICO

CITY           SKY/WX    TMP DP  RH WIND       PRES   REMARKS
CHIHUAHUA      MOSUNNY   39  23  52 E8        30.45S WCI  34
MATAMOROS      DRIZZLE   41  37  87 N23       30.53S FOG     WCI  31
MONCLOVA         N/A    N/A N/A N/A MISG        N/A
MONTERREY      DRIZZLE   37  32  81 NW20G46   30.54R WCI  27
NUEVO LAREDO   SNOW      32  30  93 N12       30.72R VSB 1/4 WCI  23
PIEDRAS NEGRAS CLOUDY    34  19  55 NW12      30.75R WCI  25
REYNOSA        CLOUDY    37  34  87 NW18      30.60R FOG     WCI  27
SALTILLO       FOG       36  36 100 N6        30.45S VSB 1/4 WCI  31
TORREON        MOSUNNY   61  43  51 NE9       30.33R
CD. VICTORIA   MOSUNNY   68  52  56 MISG      30.39S

WESTERN MEXICO

CITY           SKY/WX    TMP DP  RH WIND       PRES   REMARKS
AGUASCALIENTES SUNNY     61   9  12 W7        30.38S
COLIMA         SUNNY     75  54  46 CALM      30.15F
DEL BAJIO      SUNNY     59  14  17 S7        30.42S
GUADALAJARA    SUNNY     63  32  31 E7        30.31S
MANZANILLO     SUNNY     77  70  78 CALM      30.03
P. VALLARTA    SUNNY     73  55  53 MISG      30.06
URUAPAN        SUNNY     66  46  48 CALM      30.28S
ZACATECAS      SUNNY     61  30  31 CALM      30.36

CENTRAL MEXICO

CITY           SKY/WX    TMP DP  RH WIND       PRES   REMARKS
CUERNAVACA       N/A    N/A N/A N/A MISG        N/A
MEXICO CITY    SUNNY     59  28  31 CALM      30.42F
MORELIA        SUNNY     57  30  35 CALM      30.36F
POZA RICA      PTSUNNY   70  63  78 N9        30.36S
PUEBLA         MOSUNNY   59  25  27 CALM      30.41
QUERETARO      SUNNY     52  36  54 E12       30.45F
S. LUIS POTOSI SUNNY     46  28  49 CALM      30.43S
TAMPICO        CLOUDY    64  63  94 MISG      30.35S
TOLUCA         MOSUNNY   52  18  25 CALM      30.46F

SOUTHERN MEXICO

CITY           SKY/WX    TMP DP  RH WIND       PRES   REMARKS
ACAPULCO       MOSUNNY   84  59  42 NW3       30.02F
B. DE HUATULCO CLOUDY   N/A N/A N/A W9        30.05
OAXACA         CLOUDY    54  41  62 N6        30.38F
P. ESCONDIDO   MOSUNNY   82  63  51 CALM      30.12S
VERACRUZ       CLOUDY    75  55  50 CALM      30.28F
ZIHUATANEJO    MOSUNNY   84  66  54 S5        30.02F

YUCATAN PENINSULA

CITY           SKY/WX    TMP DP  RH WIND       PRES   REMARKS
CAMPECHE       PTSUNNY   73  55  53 N17       30.22F
CANCUN         CLOUDY    77  59  53 E7        30.22F
CHETUMAL       PTSUNNY   72  59  64 N7        30.21S
CD. DEL CARMEN CLOUDY   N/A N/A N/A SE9       30.28F
COZUMEL        CLOUDY    77  57  50 NE9       30.20S
MERIDA         PTSUNNY   77  54  44 N13       30.26F
MINATITLAN     CLOUDY    70  64  83 CALM      30.25F
TAPACHULA      MOSUNNY   84  64  51 NE5       29.99F
TUX. GUTIERREZ PTSUNNY   66  52  59 N2        30.23F
VILLAHERMOSA   PTSUNNY   72  57  60 NE9       30.28S

CENTRAL AMERICA

CITY           SKY/WX    TMP DP  RH WIND       PRES   REMARKS
BELIZE CITY    PTSUNNY   72  61  68 NW8       30.19S
MANAGUA        MOSUNNY   84  66  54 E21       29.92F

CARIBBEAN

CITY           SKY/WX    TMP DP  RH WIND       PRES   REMARKS
ARUBA          MOSUNNY   88  75  66 E18       29.92S HX  97
CURACAO        MOSUNNY   86  73  66 E14       29.94F HX  93
KINGSTON       MOSUNNY   86  70  58 S6        29.97  HX  90
NASSAU         PTSUNNY   81  68  65 N14       30.20F
SAN JUAN       MOSUNNY   84  73  70 NE17      30.02F HX  91
SANTO DOMINGO  PTSUNNY   81  75  83 E5        30.00S
ST. CROIX      SUNNY     84  73  70 E15       30.02  HX  91
ST. KITTS      MOSUNNY   84  73  70 E15       30.00F HX  91
ST. MAARTEN    MOSUNNY   82  70  65 E12       30.00F
ST. THOMAS     SUNNY     84  72  65 E15       30.02F

$$




USA.gov is the U.S. government's official web portal to all federal, state and local government web resources and services.